Location: Colebrook
(42.0017°N, 73.0973°W)
Time: 21:28:53
(UTC-04:00)

N. Korean satellite - Pass Details

Date: 04 October 2021
Orbit: 450 x 495 km, 97.3° (Epoch: 22 October)

Event Time Altitude Azimuth Distance (km) Brightness Sun altitude
Rises 06:16:57 0° 10° (N) 2,559 10.4 -7.5°
Reaches altitude 10° 06:19:01 10° 8° (N) 1,681 9.4 -7.1°
Maximum altitude 06:22:38 74° 283° (WNW) 515 6.5 -6.4°
Drops below altitude 10° 06:26:15 10° 199° (SSW) 1,683 9.1 -5.8°
Sets 06:28:19 0° 197° (SSW) 2,564 10.1 -5.4°
